Location: Karaa?a�
(36.7158°N, 30.4165°E)
Time: 01:17:21
(UTC+00:00)

IRIDIUM 104 - Pass Details

Date: 09 April 2020
Orbit: 776 x 779 km, 86.4° (Epoch: 06 June)

Event Time Altitude Azimuth Distance (km) Brightness Sun altitude
Rises 17:00:36 0° 1° (N) 3,269 7.8 -7.2°
Reaches altitude 10° 17:03:00 10° 5° (N) 2,337 7.0 -7.7°
Maximum altitude 17:08:11 62° 86° (E) 872 4.4 -8.7°
Drops below altitude 10° 17:13:19 10° 167° (SSE) 2,320 6.5 -9.7°
Sets 17:15:41 0° 171° (S) 3,243 7.3 -10.1°
